AK4NG Weather Reports


Display with metric or nautical units.
time (UTC)temp
F
wind
direction
speed
MPH
gust
MPH
rain 1hr
in
rain 24hr
in
rain mn
in
humidity
%
barometer
mb
20260906150420 88 124 0.0 0.0 0.00 0.00 0.00 69 1014.0
20260906145915 88 137 2.0 2.0 0.00 0.00 0.00 70 1014.2
20260906145414 88 228 4.0 4.0 0.00 0.00 0.00 70 1014.0
20260906144909 88 129 1.0 1.0 0.00 0.00 0.00 69 1013.8
20260906144409 87 104 0.0 0.0 0.00 0.00 0.00 71 1014.0
20260906143904 87 148 1.0 1.0 0.00 0.00 0.00 72 1014.0
20260906143400 87 172 2.0 3.0 0.00 0.00 0.00 75 1013.9
20260906142856 88 173 2.0 1.0 0.00 0.00 0.00 71 1014.0
20260906142355 87 165 1.0 1.0 0.00 0.00 0.00 74 1014.0
20260906141850 86 126 1.0 1.0 0.00 0.00 0.00 75 1014.0
20260906141344 86 169 2.0 2.0 0.00 0.00 0.00 75 1013.9
20260906140844 85 131 0.0 0.0 0.00 0.00 0.00 77 1014.1
20260906140339 85 99 2.0 2.0 0.00 0.00 0.00 76 1014.2
20260906135836 84 300 2.0 2.0 0.00 0.00 0.00 79 1014.2
20260906135331 84 214 2.0 2.0 0.00 0.00 0.00 80 1014.3
20260906134827 84 146 1.0 1.0 0.00 0.00 0.00 80 1014.2
20260906134322 84 137 0.0 1.0 0.00 0.00 0.00 80 1014.1
20260906133817 83 151 1.0 1.0 0.00 0.00 0.00 81 1014.3
20260906133313 83 148 0.0 0.0 0.00 0.00 0.00 85 1014.2
20260906132808 82 148 0.0 0.0 0.00 0.00 0.00 85 1014.2
20260906132306 81 152 0.0 0.0 0.00 0.00 0.00 88 1014.3
20260906131758 80 152 0.0 0.0 0.00 0.00 0.00 88 1014.3
20260906131253 80 128 0.0 0.0 0.00 0.00 0.00 90 1014.2
20260906130749 80 134 0.0 0.0 0.00 0.00 0.00 92 1014.2
20260906130244 78 144 0.0 0.0 0.00 0.00 0.00 95 1014.0
20260906125743 77 145 0.0 0.0 0.00 0.00 0.00 98 1014.1
20260906125241 77 313 0.0 0.0 0.00 0.00 0.00 99 1014.0
20260906124741 76 313 1.0 1.0 0.00 0.00 0.00 99 1014.5
20260906124237 76 307 2.0 3.0 0.00 0.00 0.00 99 1014.4
20260906123736 75 189 0.0 0.0 0.00 0.00 0.00 99 1014.5
20260906123231 75 93 0.0 0.0 0.00 0.00 0.00 99 1014.4
20260906122730 75 93 0.0 0.0 0.00 0.00 0.00 99 1014.2
20260906122226 74 93 0.0 0.0 0.00 0.00 0.00 99 1014.2
20260906121722 74 93 0.0 0.0 0.00 0.00 0.00 99 1014.1
20260906121218 73 93 0.0 0.0 0.00 0.00 0.00 99 1014.0
20260906120714 73 93 0.0 0.0 0.00 0.00 0.00 99 1014.1
20260906120211 73 93 0.0 0.0 0.00 0.00 0.00 99 1014.0
20260906115706 73 93 0.0 0.0 0.00 0.00 0.00 99 1014.0
20260906115201 73 93 0.0 0.0 0.00 0.00 0.00 99 1014.0
20260906114700 72 93 0.0 0.0 0.00 0.00 0.00 99 1014.0
20260906114155 72 93 0.0 0.0 0.00 0.00 0.00 99 1014.1
20260906113655 73 93 0.0 0.0 0.00 0.00 0.00 99 1014.0
20260906113155 73 93 0.0 0.0 0.00 0.00 0.00 99 1014.2
20260906112654 73 93 0.0 0.0 0.00 0.00 0.00 99 1013.9
20260906112152 73 93 0.0 0.0 0.00 0.00 0.00 99 1013.8
20260906111651 73 93 0.0 0.0 0.00 0.00 0.00 99 1013.9
20260906111145 73 93 0.0 0.0 0.00 0.00 0.00 99 1013.9
20260906110641 73 93 0.0 0.0 0.00 0.00 0.00 99 1013.9
20260906110136 73 93 0.0 0.0 0.00 0.00 0.00 99 1013.8
20260906105630 73 93 0.0 0.0 0.00 0.00 0.00 99 1013.8
20260906105126 73 93 1.0 1.0 0.00 0.00 0.00 99 1013.8
20260906104625 73 93 0.0 0.0 0.00 0.00 0.00 99 1014.0
20260906104119 73 93 0.0 0.0 0.00 0.00 0.00 99 1013.5
20260906103617 73 93 0.0 0.0 0.00 0.00 0.00 99 1013.5
20260906103114 73 93 1.0 1.0 0.00 0.00 0.00 99 1013.6
20260906102614 73 93 0.0 0.0 0.00 0.00 0.00 99 1013.4
20260906102109 73 93 0.0 0.0 0.00 0.00 0.00 99 1013.2
20260906101609 73 93 0.0 0.0 0.00 0.00 0.00 99 1013.5
20260906101108 73 93 0.0 0.0 0.00 0.00 0.00 99 1013.5
20260906100604 73 93 0.0 0.0 0.00 0.00 0.00 99 1013.4
20260906100059 73 93 0.0 0.0 0.00 0.00 0.00 99 1013.5
20260906095559 73 93 0.0 0.0 0.00 0.00 0.00 99 1013.2
20260906095054 73 93 0.0 0.0 0.00 0.00 0.00 99 1013.3
20260906094553 73 93 0.0 0.0 0.00 0.00 0.00 99 1013.3
20260906094049 73 93 0.0 0.0 0.00 0.00 0.00 99 1013.2
20260906093545 73 93 0.0 0.0 0.00 0.00 0.00 99 1013.3
20260906093040 73 93 0.0 0.0 0.00 0.00 0.00 99 1013.2
20260906092540 73 93 0.0 0.0 0.00 0.00 0.00 99 1013.1
20260906092035 73 93 0.0 0.0 0.00 0.00 0.00 99 1013.2
20260906091531 73 93 0.0 0.0 0.00 0.00 0.00 99 1013.0
20260906091028 73 93 0.0 0.0 0.00 0.00 0.00 99 1013.0
20260906090527 73 93 0.0 0.0 0.00 0.00 0.00 99 1013.1
20260906090022 73 93 0.0 0.0 0.00 0.00 0.00 99 1012.8
20260906085521 72 93 0.0 0.0 0.00 0.00 0.00 99 1012.9
20260906085021 72 93 0.0 0.0 0.00 0.00 0.00 99 1012.9
20260906084522 73 93 0.0 0.0 0.00 0.00 0.00 99 1012.9
20260906084020 73 93 0.0 0.0 0.00 0.00 0.00 99 1012.9
20260906083516 73 93 0.0 0.0 0.00 0.00 0.00 99 1012.9
20260906083015 73 93 0.0 0.0 0.00 0.00 0.00 99 1012.7
20260906082511 73 93 0.0 0.0 0.00 0.00 0.00 99 1012.8
20260906082007 73 93 0.0 0.0 0.00 0.00 0.00 99 1012.9
20260906081502 73 93 0.0 0.0 0.00 0.00 0.00 99 1012.8
20260906080957 73 93 0.0 0.0 0.00 0.00 0.00 99 1012.8
20260906080454 73 93 0.0 0.0 0.00 0.00 0.00 99 1012.7
20260906075949 73 93 0.0 0.0 0.00 0.00 0.00 99 1012.8
20260906075444 73 93 0.0 0.0 0.00 0.00 0.00 99 1012.7
20260906074939 73 93 0.0 0.0 0.00 0.00 0.00 99 1012.8
20260906074438 73 93 0.0 0.0 0.00 0.00 0.00 99 1012.7
20260906073937 74 93 0.0 0.0 0.00 0.00 0.00 99 1012.7
20260906073432 74 93 0.0 0.0 0.00 0.00 0.00 99 1012.5
20260906072928 74 93 1.0 1.0 0.00 0.00 0.00 99 1012.6
20260906072423 74 93 0.0 0.0 0.00 0.00 0.00 99 1012.7
20260906071920 74 93 0.0 0.0 0.00 0.00 0.00 99 1012.8
20260906071415 74 93 0.0 0.0 0.00 0.00 0.00 99 1013.0
20260906070911 74 93 0.0 0.0 0.00 0.00 0.00 99 1013.1
20260906070407 74 93 0.0 0.0 0.00 0.00 0.00 99 1013.1
20260906065902 74 93 0.0 0.0 0.00 0.00 0.00 99 1013.0
20260906065356 74 93 0.0 0.0 0.00 0.00 0.00 99 1013.1
20260906064852 74 93 0.0 0.0 0.00 0.00 0.00 99 1013.0
20260906064349 74 93 0.0 0.0 0.00 0.00 0.00 99 1013.0
20260906063848 74 93 0.0 0.0 0.00 0.00 0.00 99 1013.0
20260906063343 74 93 0.0 0.0 0.00 0.00 0.00 98 1012.9
20260906062838 74 93 0.0 0.0 0.00 0.00 0.00 99 1013.1
20260906062338 74 93 0.0 0.0 0.00 0.00 0.00 98 1013.1
20260906061833 74 93 0.0 0.0 0.00 0.00 0.00 98 1013.4
20260906061330 74 93 0.0 0.0 0.00 0.00 0.00 98 1013.1
20260906060824 74 93 0.0 0.0 0.00 0.00 0.00 98 1013.3
20260906060322 74 93 0.0 0.0 0.00 0.00 0.00 98 1013.3
20260906055817 74 93 0.0 0.0 0.00 0.00 0.00 98 1013.5
20260906055313 74 93 0.0 0.0 0.00 0.00 0.00 98 1013.3
20260906054808 74 93 0.0 0.0 0.00 0.00 0.00 98 1013.6
20260906054303 74 93 0.0 0.0 0.00 0.00 0.00 98 1013.5
20260906053800 75 93 0.0 0.0 0.00 0.00 0.00 98 1013.4
20260906053255 75 93 0.0 0.0 0.00 0.00 0.00 98 1013.4
20260906052750 75 93 0.0 0.0 0.00 0.00 0.00 98 1013.5
20260906052246 75 93 0.0 0.0 0.00 0.00 0.00 98 1013.5
20260906051743 75 93 0.0 0.0 0.00 0.00 0.00 98 1013.5
20260906051243 75 93 0.0 0.0 0.00 0.00 0.00 98 1013.6
20260906050738 75 93 1.0 0.0 0.00 0.00 0.00 98 1013.7
20260906050233 75 92 1.0 1.0 0.00 0.00 0.00 98 1013.6
20260906045732 75 93 1.0 0.0 0.00 0.00 0.00 97 1013.8
20260906045227 75 93 0.0 0.0 0.00 0.00 0.00 97 1013.8
20260906044723 75 93 1.0 1.0 0.00 0.00 0.00 97 1013.9
20260906044218 75 146 0.0 0.0 0.00 0.00 0.00 97 1013.8
20260906043714 75 146 0.0 0.0 0.00 0.00 0.00 97 1013.6
20260906043210 76 146 0.0 0.0 0.00 0.00 0.00 97 1013.6
20260906042709 75 146 0.0 0.0 0.00 0.00 0.00 97 1013.6
20260906042203 76 146 0.0 0.0 0.00 0.00 0.00 97 1013.7
20260906041659 76 146 0.0 0.0 0.00 0.00 0.00 97 1013.7
20260906041154 76 146 0.0 0.0 0.00 0.00 0.00 97 1013.7
20260906040649 76 147 0.0 0.0 0.00 0.00 0.00 96 1013.6
20260906040145 76 146 0.0 0.0 0.00 0.00 0.00 96 1013.6
20260906035644 76 146 0.0 0.0 0.00 0.00 0.00 96 1013.8
20260906035140 77 146 0.0 0.0 0.00 0.00 0.00 96 1013.9
20260906034636 77 146 0.0 0.0 0.00 0.00 0.00 96 1013.7
20260906034130 77 146 0.0 0.0 0.00 0.00 0.00 96 1013.8
20260906033626 77 147 0.0 0.0 0.00 0.00 0.00 96 1013.7
20260906033126 77 125 0.0 0.0 0.00 0.00 0.00 96 1013.8
20260906032623 76 135 2.0 2.0 0.00 0.00 0.00 96 1014.0
20260906032122 77 210 0.0 0.0 0.00 0.00 0.00 96 1013.8
20260906031617 77 210 0.0 0.0 0.00 0.00 0.00 96 1014.0
20260906031113 77 210 0.0 0.0 0.00 0.00 0.00 96 1014.0
20260906030612 77 210 0.0 0.0 0.00 0.00 0.00 96 1014.0
20260906030108 77 210 0.0 0.0 0.00 0.00 0.00 96 1014.1
20260906025608 77 210 0.0 0.0 0.00 0.00 0.00 96 1014.1
20260906025106 77 210 0.0 0.0 0.00 0.00 0.00 96 1014.2
20260906024601 77 210 0.0 0.0 0.00 0.00 0.00 95 1014.2
20260906024101 77 210 0.0 0.0 0.00 0.00 0.00 95 1013.9
20260906023557 77 210 0.0 0.0 0.00 0.00 0.00 95 1013.9
20260906023051 77 210 0.0 0.0 0.00 0.00 0.00 95 1014.0
20260906022547 77 210 0.0 0.0 0.00 0.00 0.00 95 1013.8
20260906022042 77 210 0.0 0.0 0.00 0.00 0.00 95 1013.9
20260906021538 77 210 0.0 0.0 0.00 0.00 0.00 95 1013.9
20260906021037 77 210 0.0 0.0 0.00 0.00 0.00 94 1013.6
20260906020536 77 210 0.0 0.0 0.00 0.00 0.00 94 1013.6
20260906020036 77 210 0.0 0.0 0.00 0.00 0.00 94 1013.6
20260906015535 77 210 0.0 0.0 0.00 0.00 0.00 94 1013.6
20260906015030 77 210 0.0 0.0 0.00 0.00 0.00 94 1013.5
20260906014525 77 210 0.0 0.0 0.00 0.00 0.00 93 1013.4
20260906014021 77 211 0.0 0.0 0.00 0.00 0.00 93 1013.2
20260906013516 78 211 0.0 0.0 0.00 0.00 0.00 93 1012.9
20260906013012 78 211 0.0 0.0 0.00 0.00 0.00 92 1012.9
20260906012507 78 211 0.0 0.0 0.00 0.00 0.00 92 1012.5
20260906012006 78 211 0.0 0.0 0.00 0.00 0.00 91 1012.5
20260906011502 78 212 0.0 0.0 0.00 0.00 0.00 91 1012.5
20260906011002 78 263 2.0 2.0 0.00 0.00 0.00 91 1012.4
20260906010457 79 282 1.0 1.0 0.00 0.00 0.00 91 1012.3
20260906005954 79 237 2.0 2.0 0.00 0.00 0.00 90 1012.3
20260906005453 79 249 1.0 1.0 0.00 0.00 0.00 90 1012.4
20260906004951 79 204 1.0 1.0 0.00 0.00 0.00 89 1012.2
20260906004446 79 163 1.0 1.0 0.00 0.00 0.00 89 1012.2
20260906003942 80 340 1.0 1.0 0.00 0.00 0.00 88 1012.1
20260906003442 80 345 0.0 0.0 0.00 0.00 0.00 88 1012.3
20260906002937 80 260 1.0 1.0 0.00 0.00 0.00 87 1012.1
20260906002436 80 270 1.0 1.0 0.00 0.00 0.00 87 1012.4
20260906001932 80 188 0.0 0.0 0.00 0.00 0.00 86 1012.3
20260906001428 80 188 0.0 0.0 0.00 0.00 0.00 87 1012.2
20260906000922 81 187 0.0 0.0 0.00 0.00 0.00 86 1012.4
20260906000418 81 188 0.0 0.0 0.00 0.00 0.00 86 1012.4
20260905235913 82 221 0.0 0.0 0.00 0.00 0.00 84 1012.3
20260905235407 82 221 0.0 0.0 0.00 0.00 0.00 83 1012.5
20260905234902 82 190 1.0 1.0 0.00 0.00 0.00 82 1012.7
20260905234357 83 189 1.0 1.0 0.00 0.00 0.00 82 1012.6
20260905233852 83 180 0.0 0.0 0.00 0.00 0.00 81 1012.7
20260905233347 84 161 0.0 0.0 0.00 0.00 0.00 79 1012.8
20260905232846 84 161 0.0 0.0 0.00 0.00 0.00 78 1012.7
20260905232343 85 161 0.0 0.0 0.00 0.00 0.00 77 1012.6
20260905231838 86 161 0.0 0.0 0.00 0.00 0.00 75 1012.8
20260905231338 87 161 1.0 1.0 0.00 0.00 0.00 71 1012.7
20260905230836 88 161 0.0 0.0 0.00 0.00 0.00 69 1012.6
20260905230333 89 184 1.0 1.0 0.00 0.00 0.00 67 1012.7
20260905225832 91 184 1.0 1.0 0.00 0.00 0.00 64 1012.6
20260905225327 90 141 0.0 0.0 0.00 0.00 0.00 64 1012.7
20260905224821 90 114 1.0 1.0 0.00 0.00 0.00 65 1012.8
20260905224317 90 256 1.0 1.0 0.00 0.00 0.00 63 1012.6
20260905223812 91 219 1.0 1.0 0.00 0.00 0.00 64 1012.6
20260905223310 91 241 3.0 3.0 0.00 0.00 0.00 64 1012.7
20260905222805 90 290 1.0 2.0 0.00 0.00 0.00 65 1012.5
20260905222306 90 243 3.0 3.0 0.00 0.00 0.00 65 1012.5
20260905221800 90 185 2.0 2.0 0.00 0.00 0.00 66 1012.7
20260905221256 90 220 2.0 2.0 0.00 0.00 0.00 66 1012.7
20260905220752 90 245 2.0 2.0 0.00 0.00 0.00 65 1012.7
20260905220248 91 272 4.0 4.0 0.00 0.00 0.00 62 1012.6
20260905215747 91 189 1.0 1.0 0.00 0.00 0.00 66 1012.8
20260905215243 91 162 1.0 1.0 0.00 0.00 0.00 65 1012.8
20260905214738 90 211 1.0 1.0 0.00 0.00 0.00 66 1012.6
20260905214234 89 193 1.0 1.0 0.00 0.00 0.00 68 1012.6
20260905213729 91 336 1.0 1.0 0.00 0.00 0.00 64 1012.7
20260905213225 91 187 1.0 2.0 0.00 0.00 0.00 62 1012.6
20260905212720 91 157 1.0 1.0 0.00 0.00 0.00 62 1012.7
20260905212220 90 283 3.0 4.0 0.00 0.00 0.00 61 1012.9
20260905211720 91 106 5.0 6.0 0.00 0.00 0.00 60 1012.9
20260905211215 91 95 2.0 3.0 0.00 0.00 0.00 60 1013.0
20260905210712 91 195 4.0 4.0 0.00 0.00 0.00 60 1013.0
20260905210211 91 225 2.0 2.0 0.00 0.00 0.00 62 1013.1
20260905205710 90 52 2.0 2.0 0.00 0.00 0.00 62 1013.2
20260905205210 91 153 1.0 1.0 0.00 0.00 0.00 63 1013.1
20260905204710 90 193 1.0 1.0 0.00 0.00 0.00 66 1013.1
20260905204206 89 156 2.0 2.0 0.00 0.00 0.00 66 1012.9
20260905203706 88 94 0.0 0.0 0.00 0.00 0.00 68 1012.9
20260905203201 88 111 0.0 0.0 0.00 0.00 0.00 68 1013.0
20260905202656 89 130 1.0 1.0 0.00 0.00 0.00 68 1012.9
20260905202152 92 129 0.0 0.0 0.00 0.00 0.00 65 1013.1
20260905201648 91 148 1.0 1.0 0.00 0.00 0.00 66 1013.2
20260905201147 91 204 1.0 1.0 0.00 0.00 0.00 63 1013.1
20260905200642 90 147 1.0 4.0 0.00 0.00 0.00 65 1013.3
20260905200138 89 174 1.0 1.0 0.00 0.00 0.00 66 1013.5
20260905195636 89 219 1.0 2.0 0.00 0.00 0.00 67 1013.6
20260905195132 87 166 3.0 3.0 0.00 0.00 0.00 69 1013.6
20260905194632 88 126 3.0 3.0 0.00 0.00 0.00 69 1013.5
20260905194131 88 183 1.0 1.0 0.00 0.00 0.00 72 1013.8
20260905193626 86 119 2.0 3.0 0.00 0.00 0.00 73 1014.1
20260905193121 86 304 2.0 2.0 0.00 0.00 0.00 73 1014.3
20260905192617 85 201 1.0 1.0 0.00 0.00 0.00 74 1014.3
20260905192113 84 183 1.0 1.0 0.00 0.00 0.00 76 1014.3
20260905191612 83 132 0.0 0.0 0.00 0.00 0.00 76 1014.4
20260905191110 83 120 4.0 4.0 0.00 0.00 0.00 75 1014.4
20260905190609 83 164 1.0 1.0 0.00 0.00 0.00 77 1014.4
20260905190103 82 109 0.0 0.0 0.00 0.00 0.00 80 1014.7
20260905185602 83 359 2.0 2.0 0.00 0.00 0.00 79 1014.5
20260905185102 83 83 3.0 3.0 0.00 0.00 0.00 80 1014.8
20260905184556 82 66 2.0 2.0 0.00 0.00 0.00 82 1014.8
20260905184055 81 301 0.0 0.0 0.00 0.00 0.00 83 1014.9
20260905183555 80 138 0.0 0.0 0.00 0.00 0.00 86 1014.8
20260905183051 79 146 2.0 2.0 0.00 0.00 0.00 89 1015.1
20260905182550 78 99 0.0 0.0 0.00 0.00 0.00 91 1015.3
20260905182050 78 87 0.0 0.0 0.00 0.00 0.00 90 1015.4
20260905181545 78 172 2.0 2.0 0.00 0.00 0.00 91 1015.5
20260905181044 78 59 1.0 1.0 0.00 0.00 0.00 93 1015.7
20260905180539 77 58 1.0 1.0 0.00 0.00 0.00 93 1015.7
20260905180034 77 78 1.0 1.0 0.00 0.00 0.00 94 1015.5
20260905175533 77 108 1.0 1.0 0.00 0.00 0.00 94 1015.7
20260905175029 77 166 1.0 1.0 0.00 0.00 0.00 94 1015.8
20260905174524 77 132 0.0 0.0 0.00 0.00 0.00 94 1015.9
20260905174020 77 265 1.0 1.0 0.00 0.00 0.00 95 1015.9
20260905173516 77 71 0.0 1.0 0.00 0.00 0.00 94 1016.0
20260905173011 77 274 2.0 2.0 0.00 0.00 0.00 94 1016.1
20260905172509 77 203 2.0 2.0 0.00 0.00 0.00 94 1016.1
20260905172006 77 108 0.0 1.0 0.00 0.00 0.00 94 1016.5
20260905171502 77 268 2.0 1.0 0.00 0.00 0.00 94 1016.8
20260905170958 77 136 1.0 1.0 0.00 0.00 0.00 94 1016.8
20260905170454 77 269 1.0 1.0 0.00 0.00 0.00 94 1016.9
20260905165954 77 293 2.0 3.0 0.00 0.00 0.00 94 1016.8
20260905165449 77 291 1.0 2.0 0.00 0.00 0.00 94 1016.9
20260905164944 77 76 1.0 1.0 0.00 0.00 0.00 94 1017.0
20260905164443 77 168 1.0 2.0 0.00 0.00 0.00 94 1017.1
20260905163938 77 31 0.0 1.0 0.00 0.00 0.00 94 1017.1
20260905163435 77 226 1.0 1.0 0.00 0.00 0.00 94 1017.0
20260905162931 78 4 2.0 2.0 0.00 0.00 0.00 93 1017.0
20260905162426 78 138 0.0 0.0 0.00 0.00 0.00 93 1017.2
20260905161921 78 94 1.0 1.0 0.00 0.00 0.00 92 1017.2
20260905161420 78 106 0.0 0.0 0.00 0.00 0.00 92 1017.1
20260905160918 78 129 0.0 0.0 0.00 0.00 0.00 92 1017.1
20260905160413 78 112 0.0 0.0 0.00 0.00 0.00 92 1017.3
20260905155912 78 69 1.0 1.0 0.00 0.00 0.00 91 1017.1
20260905155412 78 111 0.0 0.0 0.00 0.00 0.00 91 1017.1
20260905154911 79 51 0.0 0.0 0.00 0.00 0.00 90 1016.9
20260905154407 79 86 0.0 0.0 0.00 0.00 0.00 90 1017.0
20260905153902 79 279 1.0 1.0 0.00 0.00 0.00 89 1016.6
20260905153358 79 265 1.0 1.0 0.00 0.00 0.00 88 1016.5
20260905152858 79 84 1.0 1.0 0.00 0.00 0.00 89 1016.7
20260905152357 79 342 2.0 2.0 0.00 0.00 0.00 88 1016.5
20260905151853 80 195 2.0 2.0 0.00 0.00 0.00 87 1016.6
20260905151349 80 228 1.0 2.0 0.00 0.00 0.00 86 1016.7
20260905150848 81 277 2.0 2.0 0.00 0.00 0.00 85 1016.6